Location: Congrier
(47.8099°N, 1.1170°W)
Time: 06:47:13
(UTC+00:00)

AQUARIUS - Pass Details

Date: 28 January 2023
Orbit: 647 x 648 km, 98.0° (Epoch: 24 March)

Event Time Altitude Azimuth Distance (km) Brightness Sun altitude
Rises 17:27:46 0° 164° (SSE) 2,957 7.6 -5.4°
Reaches altitude 10° 17:29:58 10° 164° (SSE) 2,051 6.8 -5.7°
Maximum altitude 17:34:26 88° 82° (E) 659 4.2 -6.4°
Drops below altitude 10° 17:38:58 10° 347° (NNW) 2,068 6.7 -7.1°
Sets 17:41:11 0° 347° (NNW) 2,984 7.5 -7.5°
